Flag for Germany Weather past 2 weeks in Minden, North Rhine-Westphalia, Germany

Now
61 °F

Scattered clouds.


Feels Like: 61 °F
Forecast: 52 / 60 °F
Wind: 14 mph from Southwest

Location: Bueckeburg

Current Time: Sep 4, 2015 at 7:41:30 PM

Latest Report: Sep 4, 2015 at 6:20 PM


Visibility: N/A

Pressure: 29.86 "Hg

Humidity: 63%

Dew point: 48 °F

Location of MindenLocation

Historic Weather in Minden — Graph

°F

Minden temperature yesterday

Maximum temperature yesterday: 64 °F (at 3:20 PM)
Minimum temperature yesterday: 52 °F (at 4:20 AM)
Average temperature yesterday: 57 °F

Past Weeks' High & Low Weather Summary

 TemperatureHumidityPressure
High91 °F (Aug 31, 4:20 PM)100% (Aug 27, 7:20 PM)30.27 "Hg (Aug 27, 7:20 PM)
Low52 °F (Aug 29, 6:20 AM)30% (Aug 31, 4:20 PM)29.56 "Hg (Aug 24, 6:20 PM)
Average65 °F71%29.95 "Hg
* Reported Aug 20 6:20 PM — Sep 4 6:20 PM, Minden, Weather by CustomWeather, © 2015

Note: Actual official high and low records may vary slightly from our data, if they occured in-between our weather recording intervals... More about our weather records

Advertising

Minden weather history for previous 24 hours

 ConditionsComfort  
Time TempWeatherWind HumidityBarometerVisibility
6:20 PM
Fri, Sep 4
61 °FScattered clouds.14 mph63%29.86 "HgN/A
5:20 PM61 °FScattered clouds.16 mph63%29.86 "HgN/A
4:20 PM61 °FPartly sunny.17 mph59%29.86 "HgN/A
3:20 PM61 °FPartly sunny.14 mph59%29.89 "HgN/A
2:20 PM63 °FPartly sunny.16 mph56%29.89 "HgN/A
1:20 PM63 °FScattered clouds.16 mph56%29.89 "HgN/A
1:02 PM63 °FScattered clouds.16 mph52%29.89 "HgN/A
12:20 PM61 °FScattered clouds.15 mph63%29.92 "HgN/A
11:20 AM59 °FPassing clouds.12 mph63%29.92 "HgN/A
10:20 AM57 °FPassing clouds.15 mph72%29.92 "HgN/A
9:20 AM55 °FScattered clouds.12 mph82%29.92 "HgN/A
8:20 AM54 °FPassing clouds.8 mph88%29.92 "HgN/A
7:20 AM54 °FPassing clouds.8 mph88%29.92 "HgN/A
6:20 AM54 °FPassing clouds.7 mph88%29.92 "HgN/A
5:20 AM54 °FLight rain. Passing clouds.8 mph88%29.92 "Hg6 mi
4:20 AM54 °FPassing clouds.9 mph88%29.92 "HgN/A
3:20 AM54 °FPartly cloudy.7 mph88%29.92 "HgN/A
2:20 AM54 °FPassing clouds.6 mph88%29.95 "HgN/A
1:20 AM54 °FPartly cloudy.2 mph88%29.95 "HgN/A
12:20 AM54 °FPassing clouds.3 mph88%29.95 "HgN/A
11:20 PM
Thu, Sep 3
52 °FPassing clouds.6 mph94%29.92 "HgN/A
10:20 PM52 °FPartly cloudy.3 mph94%29.95 "HgN/A
9:20 PM54 °FPassing clouds.2 mph88%29.92 "HgN/A
8:20 PM54 °FScattered clouds.5 mph94%29.92 "HgN/A
7:20 PM57 °FScattered clouds.2 mph77%29.92 "HgN/A
Weather by CustomWeather, © 2015

See weather overviewHow to use our weather pages